Flag for Germany Weather past 2 weeks in Mettmann, North Rhine-Westphalia, Germany

Now
57 °F

Passing clouds.


Feels Like: 56 °F
Forecast: 54 / 75 °F
Wind: 6 mph from Southwest

Location: Duesseldorf

Current Time: Aug 28, 2015 at 2:32:05 AM

Latest Report: Aug 28, 2015 at 1:50 AM


Visibility: N/A

Pressure: 29.92 "Hg

Humidity: 94%

Dew point: 55 °F

Location of MettmannLocation

Historic Weather in Mettmann — Graph

°F

Mettmann temperature yesterday

Maximum temperature yesterday: 75 °F (at 12:50 AM)
Minimum temperature yesterday: 55 °F (at 8:20 PM)
Average temperature yesterday: 63 °F

Past Weeks' High & Low Weather Summary

 TemperatureHumidityPressure
High86 °F (Aug 13, 3:20 PM)100% (Aug 16, 2:50 AM)30.24 "Hg (Aug 16, 2:50 AM)
Low50 °F (Aug 19, 4:50 AM)30% (Aug 22, 5:20 PM)29.50 "Hg (Aug 24, 4:50 PM)
Average66 °F73%29.92 "Hg
* Reported Aug 13 1:20 AM — Aug 28 1:20 AM, Mettmann, Weather by CustomWeather, © 2015

Note: Actual official high and low records may vary slightly from our data, if they occured in-between our weather recording intervals... More about our weather records

Advertising

Mettmann weather history for previous 24 hours

 ConditionsComfort  
Time TempWeatherWind HumidityBarometerVisibility
1:20 AM
Fri, Aug 28
57 °FPassing clouds.6 mph94%29.92 "HgN/A
12:50 AM57 °FPassing clouds.6 mph94%29.92 "HgN/A
12:20 AM55 °FLight rain. Partly cloudy.6 mph100%29.92 "HgN/A
11:50 PM
Thu, Aug 27
55 °FLight rain. Mostly cloudy.3 mph100%29.89 "HgN/A
11:20 PM55 °FRain. Overcast.6 mph100%29.92 "HgN/A
10:50 PM55 °FRain. Mostly cloudy.7 mph100%29.89 "HgN/A
10:20 PM55 °FLight rain. Mostly cloudy.6 mph100%29.89 "HgN/A
9:50 PM57 °FLight rain. Mostly cloudy.6 mph94%29.89 "Hg5 mi
9:20 PM57 °FLight rain. More clouds than sun.5 mph94%29.89 "Hg5 mi
8:50 PM57 °FLight rain. More clouds than sun.6 mph94%29.89 "HgN/A
8:20 PM55 °FLight rain. More clouds than sun.5 mph100%29.86 "HgN/A
7:50 PM57 °FLight rain. Broken clouds.6 mph94%29.86 "HgN/A
7:20 PM57 °FLight rain. Broken clouds.5 mph94%29.86 "HgN/A
6:50 PM57 °FLight rain. Broken clouds.3 mph94%29.86 "HgN/A
6:20 PM57 °FLight rain. Broken clouds.6 mph94%29.86 "HgN/A
5:50 PM57 °FLight rain. Broken clouds.6 mph94%29.86 "HgN/A
5:20 PM57 °FLight rain. Broken clouds.5 mph94%29.86 "HgN/A
4:50 PM57 °FLight rain. Broken clouds.6 mph94%29.86 "HgN/A
4:20 PM57 °FRain. Broken clouds.7 mph94%29.86 "HgN/A
3:50 PM59 °FLight rain. Broken clouds.7 mph94%29.86 "HgN/A
3:20 PM59 °FLight rain. Broken clouds.7 mph88%29.86 "HgN/A
2:50 PM59 °FLight rain. Broken clouds.9 mph88%29.86 "HgN/A
2:20 PM59 °FLight rain. Broken clouds.17 mph88%29.86 "HgN/A
1:50 PM61 °FLight rain. Broken clouds.16 mph88%29.86 "HgN/A
1:20 PM63 °FLight rain. Broken clouds.9 mph94%29.86 "HgN/A
12:50 PM64 °FRain. Broken clouds.8 mph88%29.86 "HgN/A
12:20 PM64 °FLight rain. Broken clouds.8 mph88%29.86 "HgN/A
11:20 AM66 °FLight rain. Partly sunny.12 mph78%29.86 "HgN/A
10:50 AM66 °FPartly sunny.9 mph83%29.83 "HgN/A
10:20 AM66 °FLight rain. Partly sunny.9 mph88%29.86 "HgN/A
9:50 AM64 °FLight rain. Partly sunny.9 mph88%29.86 "HgN/A
9:20 AM64 °FLight rain. Partly sunny.9 mph88%29.83 "HgN/A
8:50 AM66 °FLight rain. Broken clouds.7 mph88%29.83 "HgN/A
8:20 AM66 °FLight rain. Broken clouds.8 mph83%29.83 "HgN/A
7:50 AM68 °FLight rain. Broken clouds.12 mph78%29.80 "HgN/A
7:20 AM68 °FLight rain. Passing clouds.13 mph78%29.80 "HgN/A
6:50 AM68 °FLight rain. Passing clouds.12 mph78%29.80 "HgN/A
6:20 AM68 °FPassing clouds.14 mph78%29.80 "HgN/A
5:50 AM68 °FClear.16 mph78%29.80 "Hg10 mi
5:20 AM68 °FPartly cloudy.15 mph78%29.77 "HgN/A
4:50 AM68 °FLight rain. Partly cloudy.16 mph78%29.77 "HgN/A
4:20 AM70 °FLight rain. Partly cloudy.10 mph73%29.77 "HgN/A
3:50 AM70 °FPassing clouds.9 mph73%29.77 "HgN/A
3:20 AM70 °FClear.7 mph69%29.77 "Hg10 mi
2:50 AM70 °FClear.6 mph69%29.77 "Hg10 mi
2:20 AM72 °FClear.3 mph65%29.77 "Hg10 mi
Weather by CustomWeather, © 2015

See weather overviewHow to use our weather pages